| time (UTC) | temp F | wind direction | speed MPH | gust MPH | rain 1hr in | rain 24hr in | rain mn in | humidity % | barometer mb |
| 20260507170003 | 66 | 218 | 3.0 | 5.0 | 0.00 | 0.00 | 0.00 | 72 | 1013.3 |
| 20260507165503 | 66 | 217 | 3.0 | 4.0 | 0.00 | 0.00 | 0.00 | 72 | 1013.2 |
| 20260507165003 | 66 | 215 | 3.0 | 4.0 | 0.00 | 0.00 | 0.00 | 72 | 1013.2 |
| 20260507164504 | 66 | 214 | 3.0 | 4.0 | 0.00 | 0.00 | 0.00 | 70 | 1013.2 |
| 20260507164003 | 67 | 213 | 3.0 | 4.0 | 0.00 | 0.00 | 0.00 | 71 | 1013.2 |
| 20260507163503 | 67 | 214 | 3.0 | 4.0 | 0.00 | 0.00 | 0.00 | 71 | 1013.3 |
| 20260507163003 | 67 | 214 | 3.0 | 4.0 | 0.00 | 0.00 | 0.00 | 71 | 1013.3 |
| 20260507162503 | 67 | 215 | 3.0 | 5.0 | 0.00 | 0.00 | 0.00 | 71 | 1013.2 |
| 20260507162003 | 68 | 213 | 3.0 | 5.0 | 0.00 | 0.00 | 0.00 | 71 | 1013.3 |
| 20260507161503 | 68 | 212 | 3.0 | 5.0 | 0.00 | 0.00 | 0.00 | 72 | 1013.2 |
| 20260507161003 | 67 | 212 | 4.0 | 5.0 | 0.00 | 0.00 | 0.00 | 71 | 1013.3 |
| 20260507160503 | 68 | 212 | 4.0 | 5.0 | 0.00 | 0.00 | 0.00 | 72 | 1013.4 |
| 20260507160003 | 67 | 213 | 3.0 | 5.0 | 0.00 | 0.00 | 0.00 | 71 | 1013.4 |
| 20260507155503 | 67 | 213 | 3.0 | 5.0 | 0.00 | 0.00 | 0.00 | 72 | 1013.4 |
| 20260507155003 | 66 | 212 | 3.0 | 4.0 | 0.00 | 0.00 | 0.00 | 71 | 1013.4 |
| 20260507154503 | 66 | 211 | 3.0 | 4.0 | 0.00 | 0.00 | 0.00 | 72 | 1013.4 |
| 20260507154003 | 66 | 212 | 3.0 | 4.0 | 0.00 | 0.00 | 0.00 | 71 | 1013.5 |
| 20260507153504 | 68 | 212 | 3.0 | 5.0 | 0.00 | 0.00 | 0.00 | 71 | 1013.6 |
| 20260507153003 | 68 | 211 | 4.0 | 6.0 | 0.00 | 0.00 | 0.00 | 72 | 1013.5 |
| 20260507152504 | 68 | 212 | 4.0 | 6.0 | 0.00 | 0.00 | 0.00 | 72 | 1013.5 |
| 20260507152003 | 67 | 214 | 4.0 | 6.0 | 0.00 | 0.00 | 0.00 | 72 | 1013.5 |
| 20260507151503 | 67 | 215 | 4.0 | 6.0 | 0.00 | 0.00 | 0.00 | 72 | 1013.5 |
| 20260507151003 | 67 | 217 | 4.0 | 6.0 | 0.00 | 0.00 | 0.00 | 72 | 1013.5 |
| 20260507150503 | 68 | 216 | 4.0 | 6.0 | 0.00 | 0.00 | 0.00 | 72 | 1013.5 |
| 20260507150003 | 68 | 213 | 4.0 | 6.0 | 0.00 | 0.00 | 0.00 | 71 | 1013.5 |
| 20260507145503 | 68 | 214 | 4.0 | 6.0 | 0.00 | 0.00 | 0.00 | 71 | 1013.5 |
| 20260507145003 | 68 | 216 | 4.0 | 6.0 | 0.00 | 0.00 | 0.00 | 71 | 1013.5 |
| 20260507144504 | 68 | 217 | 4.0 | 5.0 | 0.00 | 0.00 | 0.00 | 72 | 1013.5 |
| 20260507144003 | 68 | 215 | 4.0 | 6.0 | 0.00 | 0.00 | 0.00 | 72 | 1013.7 |
| 20260507143503 | 68 | 214 | 4.0 | 6.0 | 0.00 | 0.00 | 0.00 | 72 | 1013.7 |
| 20260507143003 | 67 | 216 | 5.0 | 6.0 | 0.00 | 0.00 | 0.00 | 72 | 1013.7 |
| 20260507142506 | 67 | 215 | 5.0 | 6.0 | 0.00 | 0.00 | 0.00 | 72 | 1013.7 |
| 20260507142003 | 67 | 215 | 5.0 | 9.0 | 0.00 | 0.00 | 0.00 | 72 | 1013.7 |
| 20260507141503 | 67 | 215 | 5.0 | 9.0 | 0.00 | 0.00 | 0.00 | 72 | 1013.7 |
| 20260507141003 | 67 | 215 | 6.0 | 7.0 | 0.00 | 0.00 | 0.00 | 72 | 1013.8 |
| 20260507140503 | 67 | 214 | 5.0 | 7.0 | 0.00 | 0.00 | 0.00 | 72 | 1013.9 |
| 20260507140003 | 67 | 214 | 5.0 | 7.0 | 0.00 | 0.00 | 0.00 | 72 | 1013.8 |
| 20260507135503 | 67 | 214 | 5.0 | 7.0 | 0.00 | 0.00 | 0.00 | 72 | 1013.9 |
| 20260507135003 | 67 | 212 | 5.0 | 7.0 | 0.00 | 0.00 | 0.00 | 72 | 1013.9 |
| 20260507134503 | 67 | 210 | 5.0 | 7.0 | 0.00 | 0.00 | 0.00 | 72 | 1013.9 |
| 20260507134003 | 67 | 211 | 5.0 | 7.0 | 0.00 | 0.00 | 0.00 | 72 | 1013.9 |
| 20260507133503 | 67 | 210 | 5.0 | 7.0 | 0.00 | 0.00 | 0.00 | 73 | 1014.1 |
| 20260507133003 | 67 | 205 | 5.0 | 8.0 | 0.00 | 0.00 | 0.00 | 73 | 1014.1 |
| 20260507132503 | 66 | 208 | 5.0 | 8.0 | 0.00 | 0.00 | 0.00 | 72 | 1014.0 |
| 20260507132003 | 67 | 210 | 6.0 | 8.0 | 0.00 | 0.00 | 0.00 | 74 | 1014.0 |
| 20260507131503 | 66 | 210 | 6.0 | 8.0 | 0.00 | 0.00 | 0.00 | 74 | 1014.1 |
| 20260507131003 | 66 | 210 | 6.0 | 8.0 | 0.00 | 0.00 | 0.00 | 73 | 1014.1 |
| 20260507130503 | 67 | 210 | 6.0 | 9.0 | 0.00 | 0.00 | 0.00 | 74 | 1014.1 |
| 20260507130005 | 67 | 211 | 6.0 | 9.0 | 0.00 | 0.00 | 0.00 | 74 | 1014.1 |
| 20260507125503 | 66 | 209 | 6.0 | 11.0 | 0.00 | 0.00 | 0.00 | 74 | 1014.1 |
| 20260507125003 | 66 | 205 | 6.0 | 11.0 | 0.00 | 0.00 | 0.00 | 73 | 1014.1 |
| 20260507124503 | 66 | 205 | 6.0 | 9.0 | 0.00 | 0.00 | 0.00 | 73 | 1014.1 |
| 20260507124003 | 66 | 208 | 6.0 | 8.0 | 0.00 | 0.00 | 0.00 | 73 | 1014.0 |
| 20260507123503 | 67 | 207 | 7.0 | 11.0 | 0.00 | 0.00 | 0.00 | 73 | 1014.0 |
| 20260507123004 | 66 | 203 | 7.0 | 11.0 | 0.00 | 0.00 | 0.00 | 74 | 1013.9 |
| 20260507122503 | 66 | 199 | 7.0 | 11.0 | 0.00 | 0.00 | 0.00 | 74 | 1013.9 |
| 20260507122004 | 66 | 200 | 7.0 | 11.0 | 0.00 | 0.00 | 0.00 | 74 | 1013.9 |
| 20260507121503 | 66 | 201 | 7.0 | 11.0 | 0.00 | 0.00 | 0.00 | 74 | 1013.9 |
| 20260507121003 | 66 | 200 | 7.0 | 11.0 | 0.00 | 0.00 | 0.00 | 74 | 1013.8 |
| 20260507120503 | 65 | 200 | 8.0 | 12.0 | 0.00 | 0.00 | 0.00 | 74 | 1013.9 |
| 20260507120004 | 65 | 202 | 8.0 | 12.0 | 0.00 | 0.00 | 0.00 | 75 | 1013.9 |
| 20260507115503 | 66 | 205 | 8.0 | 10.0 | 0.00 | 0.00 | 0.00 | 75 | 1013.9 |
| 20260507115003 | 65 | 208 | 8.0 | 14.0 | 0.00 | 0.00 | 0.00 | 75 | 1013.9 |
| 20260507114503 | 65 | 207 | 9.0 | 14.0 | 0.00 | 0.00 | 0.00 | 75 | 1013.9 |
| 20260507114003 | 65 | 206 | 9.0 | 12.0 | 0.00 | 0.00 | 0.00 | 75 | 1013.9 |
| 20260507113503 | 65 | 213 | 9.0 | 13.0 | 0.00 | 0.00 | 0.00 | 75 | 1014.0 |
| 20260507113004 | 65 | 210 | 9.0 | 13.0 | 0.00 | 0.00 | 0.00 | 75 | 1014.0 |
| 20260507112503 | 65 | 202 | 9.0 | 13.0 | 0.00 | 0.00 | 0.00 | 75 | 1014.1 |
| 20260507112003 | 65 | 203 | 9.0 | 15.0 | 0.00 | 0.00 | 0.00 | 75 | 1014.1 |
| 20260507111504 | 65 | 203 | 9.0 | 15.0 | 0.00 | 0.00 | 0.00 | 74 | 1014.1 |
| 20260507111003 | 65 | 205 | 9.0 | 13.0 | 0.00 | 0.00 | 0.00 | 74 | 1014.2 |
| 20260507110503 | 65 | 205 | 9.0 | 13.0 | 0.00 | 0.00 | 0.00 | 75 | 1014.1 |
| 20260507110004 | 64 | 202 | 9.0 | 13.0 | 0.00 | 0.00 | 0.00 | 75 | 1014.1 |
| 20260507105503 | 65 | 199 | 9.0 | 13.0 | 0.00 | 0.00 | 0.00 | 75 | 1014.0 |
| 20260507105003 | 65 | 202 | 9.0 | 13.0 | 0.00 | 0.00 | 0.00 | 75 | 1014.0 |
| 20260507104503 | 65 | 215 | 9.0 | 13.0 | 0.00 | 0.00 | 0.00 | 75 | 1014.0 |
| 20260507104003 | 65 | 217 | 9.0 | 12.0 | 0.00 | 0.00 | 0.00 | 76 | 1014.0 |
| 20260507103503 | 64 | 208 | 10.0 | 13.0 | 0.00 | 0.00 | 0.00 | 76 | 1014.1 |
| 20260507103003 | 65 | 206 | 10.0 | 13.0 | 0.00 | 0.00 | 0.00 | 76 | 1014.1 |
| 20260507102503 | 64 | 203 | 9.0 | 14.0 | 0.00 | 0.00 | 0.00 | 76 | 1014.1 |
| 20260507102003 | 65 | 203 | 9.0 | 14.0 | 0.00 | 0.00 | 0.00 | 76 | 1014.2 |
| 20260507101503 | 65 | 206 | 10.0 | 14.0 | 0.00 | 0.00 | 0.00 | 76 | 1014.2 |
| 20260507101003 | 65 | 208 | 10.0 | 16.0 | 0.00 | 0.00 | 0.00 | 76 | 1014.2 |
| 20260507100503 | 65 | 206 | 10.0 | 16.0 | 0.00 | 0.00 | 0.00 | 76 | 1014.1 |
| 20260507100004 | 64 | 206 | 9.0 | 14.0 | 0.00 | 0.00 | 0.00 | 76 | 1014.2 |
| 20260507095503 | 65 | 218 | 9.0 | 14.0 | 0.00 | 0.00 | 0.00 | 76 | 1014.2 |
| 20260507095003 | 64 | 225 | 9.0 | 12.0 | 0.00 | 0.00 | 0.00 | 76 | 1014.2 |
| 20260507094503 | 64 | 222 | 9.0 | 13.0 | 0.00 | 0.00 | 0.00 | 76 | 1014.2 |
| 20260507094003 | 64 | 219 | 9.0 | 13.0 | 0.00 | 0.00 | 0.00 | 76 | 1014.2 |
| 20260507093503 | 64 | 220 | 9.0 | 13.0 | 0.00 | 0.00 | 0.00 | 76 | 1014.2 |
| 20260507093003 | 64 | 221 | 9.0 | 15.0 | 0.00 | 0.00 | 0.00 | 76 | 1014.2 |
| 20260507092503 | 64 | 223 | 9.0 | 15.0 | 0.00 | 0.00 | 0.00 | 76 | 1014.1 |
| 20260507092003 | 64 | 227 | 9.0 | 12.0 | 0.00 | 0.00 | 0.00 | 76 | 1014.1 |
| 20260507091503 | 64 | 221 | 10.0 | 13.0 | 0.00 | 0.00 | 0.00 | 76 | 1014.0 |
| 20260507091003 | 64 | 219 | 10.0 | 14.0 | 0.00 | 0.00 | 0.00 | 76 | 1014.1 |
| 20260507090503 | 64 | 220 | 10.0 | 19.0 | 0.00 | 0.00 | 0.00 | 76 | 1014.1 |
| 20260507090004 | 64 | 223 | 9.0 | 19.0 | 0.00 | 0.00 | 0.00 | 76 | 1014.0 |
| 20260507085503 | 64 | 222 | 9.0 | 14.0 | 0.00 | 0.00 | 0.00 | 76 | 1014.0 |
| 20260507085003 | 64 | 225 | 8.0 | 13.0 | 0.00 | 0.00 | 0.00 | 76 | 1014.0 |
| 20260507084503 | 64 | 230 | 8.0 | 13.0 | 0.00 | 0.00 | 0.00 | 75 | 1013.9 |
| 20260507084003 | 64 | 227 | 8.0 | 14.0 | 0.00 | 0.00 | 0.00 | 76 | 1013.9 |
| 20260507083503 | 64 | 233 | 7.0 | 14.0 | 0.00 | 0.00 | 0.00 | 75 | 1013.8 |
| 20260507083003 | 64 | 240 | 7.0 | 12.0 | 0.00 | 0.00 | 0.00 | 75 | 1013.7 |
| 20260507082503 | 64 | 244 | 6.0 | 12.0 | 0.00 | 0.00 | 0.00 | 75 | 1013.7 |
| 20260507082003 | 64 | 248 | 7.0 | 11.0 | 0.00 | 0.00 | 0.00 | 76 | 1013.6 |
| 20260507081503 | 64 | 240 | 8.0 | 12.0 | 0.00 | 0.00 | 0.00 | 76 | 1013.7 |
| 20260507081003 | 64 | 228 | 8.0 | 13.0 | 0.00 | 0.00 | 0.00 | 76 | 1013.7 |
| 20260507080503 | 64 | 227 | 8.0 | 13.0 | 0.00 | 0.00 | 0.00 | 75 | 1013.6 |
| 20260507080004 | 64 | 229 | 8.0 | 11.0 | 0.00 | 0.00 | 0.00 | 75 | 1013.5 |
| 20260507075503 | 64 | 228 | 7.0 | 12.0 | 0.00 | 0.00 | 0.00 | 75 | 1013.5 |
| 20260507075003 | 64 | 228 | 5.0 | 12.0 | 0.00 | 0.00 | 0.00 | 75 | 1013.5 |
| 20260507074503 | 63 | 229 | 5.0 | 9.0 | 0.00 | 0.00 | 0.00 | 75 | 1013.4 |
| 20260507074004 | 63 | 240 | 4.0 | 11.0 | 0.00 | 0.00 | 0.00 | 76 | 1013.5 |
| 20260507073503 | 63 | 252 | 3.0 | 11.0 | 0.00 | 0.00 | 0.00 | 76 | 1013.4 |
| 20260507073004 | 63 | 245 | 3.0 | 8.0 | 0.00 | 0.00 | 0.00 | 76 | 1013.4 |
| 20260507072503 | 63 | 222 | 3.0 | 9.0 | 0.00 | 0.00 | 0.00 | 76 | 1013.5 |
| 20260507072003 | 63 | 209 | 2.0 | 9.0 | 0.00 | 0.01 | 0.00 | 75 | 1013.5 |
| 20260507071504 | 64 | 213 | 2.0 | 6.0 | 0.00 | 0.01 | 0.00 | 76 | 1013.4 |
| 20260507071003 | 63 | 236 | 2.0 | 6.0 | 0.00 | 0.01 | 0.00 | 76 | 1013.4 |
| 20260507070503 | 63 | 236 | 1.0 | 8.0 | 0.00 | 0.01 | 0.00 | 76 | 1013.4 |
| 20260507070005 | 63 | 221 | 1.0 | 8.0 | 0.00 | 0.01 | 0.00 | 76 | 1013.3 |
| 20260507065503 | 63 | 205 | 1.0 | 4.0 | 0.00 | 0.01 | 0.00 | 77 | 1013.2 |
| 20260507065003 | 63 | 199 | 1.0 | 6.0 | 0.00 | 0.01 | 0.00 | 77 | 1013.0 |
| 20260507064503 | 63 | 214 | 1.0 | 6.0 | 0.00 | 0.01 | 0.00 | 77 | 1013.1 |
| 20260507064003 | 63 | 238 | 1.0 | 4.0 | 0.00 | 0.01 | 0.00 | 77 | 1013.1 |
| 20260507063503 | 63 | 277 | 1.0 | 3.0 | 0.00 | 0.01 | 0.00 | 77 | 1013.0 |
| 20260507063003 | 62 | 280 | 1.0 | 5.0 | 0.00 | 0.01 | 0.00 | 77 | 1013.0 |
| 20260507062503 | 62 | 282 | 0.0 | 5.0 | 0.00 | 0.01 | 0.00 | 77 | 1012.9 |
| 20260507062003 | 62 | 0 | 0.0 | 2.0 | 0.00 | 0.01 | 0.00 | 77 | 1012.8 |
| 20260507061503 | 62 | 296 | 0.0 | 3.0 | 0.00 | 0.01 | 0.00 | 77 | 1012.8 |
| 20260507061003 | 62 | 307 | 1.0 | 3.0 | 0.00 | 0.01 | 0.00 | 78 | 1012.8 |
| 20260507060503 | 62 | 315 | 1.0 | 4.0 | 0.00 | 0.01 | 0.00 | 78 | 1012.9 |
| 20260507060003 | 62 | 313 | 1.0 | 4.0 | 0.00 | 0.01 | 0.00 | 78 | 1012.8 |
| 20260507055503 | 62 | 317 | 1.0 | 3.0 | 0.00 | 0.01 | 0.00 | 78 | 1012.8 |
| 20260507055003 | 61 | 302 | 1.0 | 3.0 | 0.00 | 0.01 | 0.00 | 78 | 1012.7 |
| 20260507054503 | 61 | 264 | 1.0 | 3.0 | 0.00 | 0.01 | 0.00 | 79 | 1012.8 |
| 20260507054003 | 61 | 244 | 1.0 | 4.0 | 0.00 | 0.02 | 0.00 | 79 | 1012.7 |
| 20260507053503 | 61 | 238 | 1.0 | 4.0 | 0.00 | 0.02 | 0.00 | 79 | 1012.6 |
| 20260507053004 | 61 | 257 | 1.0 | 4.0 | 0.00 | 0.07 | 0.00 | 79 | 1012.6 |
| 20260507052503 | 61 | 328 | 1.0 | 4.0 | 0.00 | 0.15 | 0.00 | 79 | 1012.5 |
| 20260507052003 | 60 | 350 | 1.0 | 4.0 | 0.00 | 0.20 | 0.00 | 79 | 1012.4 |
| 20260507051503 | 60 | 333 | 0.0 | 5.0 | 0.00 | 0.26 | 0.00 | 78 | 1012.4 |
| 20260507051003 | 60 | 292 | 0.0 | 5.0 | 0.00 | 0.40 | 0.00 | 78 | 1012.4 |
| 20260507050503 | 60 | 214 | 0.0 | 4.0 | 0.00 | 0.44 | 0.00 | 79 | 1012.3 |
| 20260507050004 | 60 | 272 | 1.0 | 4.0 | 0.00 | 0.44 | 0.00 | 79 | 1012.3 |
| 20260507045503 | 60 | 297 | 1.0 | 3.0 | 0.00 | 0.44 | 0.00 | 79 | 1012.3 |
| 20260507045003 | 60 | 295 | 1.0 | 4.0 | 0.00 | 0.44 | 0.00 | 79 | 1012.2 |
| 20260507044503 | 60 | 292 | 1.0 | 4.0 | 0.00 | 0.46 | 0.00 | 79 | 1012.2 |
| 20260507044003 | 60 | 301 | 1.0 | 4.0 | 0.00 | 0.48 | 0.00 | 79 | 1012.2 |
| 20260507043503 | 60 | 321 | 1.0 | 4.0 | 0.00 | 0.48 | 0.00 | 80 | 1012.1 |
| 20260507043003 | 60 | 329 | 1.0 | 3.0 | 0.00 | 0.48 | 0.00 | 80 | 1012.1 |
| 20260507042503 | 59 | 331 | 1.0 | 3.0 | 0.00 | 0.48 | 0.00 | 80 | 1012.1 |
| 20260507042003 | 59 | 326 | 1.0 | 4.0 | 0.00 | 0.48 | 0.00 | 80 | 1012.1 |
| 20260507041503 | 59 | 323 | 0.0 | 4.0 | 0.00 | 0.48 | 0.00 | 80 | 1012.0 |
| 20260507041003 | 59 | 0 | 0.0 | 2.0 | 0.00 | 0.48 | 0.00 | 81 | 1011.9 |
| 20260507040503 | 59 | 0 | 0.0 | 1.0 | 0.00 | 0.48 | 0.00 | 81 | 1011.9 |
| 20260507040003 | 59 | 0 | 0.0 | 0.0 | 0.00 | 0.48 | 0.00 | 81 | 1012.0 |
| 20260507035504 | 59 | 314 | 0.0 | 2.0 | 0.00 | 0.50 | 0.00 | 81 | 1012.0 |
| 20260507035003 | 59 | 328 | 0.0 | 4.0 | 0.00 | 0.50 | 0.00 | 81 | 1012.1 |
| 20260507034503 | 59 | 0 | 0.0 | 4.0 | 0.00 | 0.50 | 0.00 | 81 | 1012.1 |
| 20260507034003 | 59 | 0 | 0.0 | 4.0 | 0.00 | 0.53 | 0.00 | 81 | 1012.1 |
| 20260507033503 | 59 | 0 | 0.0 | 4.0 | 0.00 | 0.53 | 0.00 | 81 | 1012.0 |
| 20260507033003 | 59 | 0 | 0.0 | 4.0 | 0.00 | 0.53 | 0.00 | 83 | 1012.1 |
| 20260507032503 | 59 | 0 | 0.0 | 1.0 | 0.00 | 0.53 | 0.00 | 81 | 1012.0 |
| 20260507032003 | 59 | 0 | 0.0 | 3.0 | 0.00 | 0.53 | 0.00 | 81 | 1011.9 |
| 20260507031503 | 59 | 347 | 0.0 | 3.0 | 0.00 | 0.53 | 0.00 | 81 | 1011.9 |
| 20260507031003 | 59 | 347 | 1.0 | 4.0 | 0.00 | 0.53 | 0.00 | 81 | 1012.0 |
| 20260507030503 | 59 | 346 | 2.0 | 4.0 | 0.00 | 0.53 | 0.00 | 81 | 1012.1 |
| 20260507030003 | 59 | 349 | 3.0 | 5.0 | 0.00 | 0.53 | 0.00 | 81 | 1012.0 |
| 20260507025503 | 59 | 352 | 3.0 | 7.0 | 0.00 | 0.53 | 0.00 | 81 | 1012.0 |
| 20260507025003 | 58 | 349 | 3.0 | 7.0 | 0.00 | 0.53 | 0.00 | 81 | 1012.1 |
| 20260507024503 | 58 | 346 | 2.0 | 6.0 | 0.00 | 0.53 | 0.00 | 81 | 1012.0 |
| 20260507024003 | 58 | 357 | 2.0 | 6.0 | 0.00 | 0.53 | 0.00 | 81 | 1012.0 |
| 20260507023503 | 58 | 22 | 2.0 | 5.0 | 0.00 | 0.53 | 0.00 | 81 | 1012.0 |
| 20260507023003 | 58 | 37 | 3.0 | 5.0 | 0.00 | 0.53 | 0.00 | 81 | 1012.1 |
| 20260507022503 | 58 | 38 | 3.0 | 6.0 | 0.00 | 0.53 | 0.00 | 81 | 1012.1 |
| 20260507022003 | 58 | 31 | 2.0 | 7.0 | 0.00 | 0.53 | 0.00 | 81 | 1012.1 |
| 20260507021503 | 58 | 21 | 2.0 | 7.0 | 0.00 | 0.53 | 0.00 | 81 | 1012.2 |
| 20260507021003 | 58 | 19 | 3.0 | 5.0 | 0.00 | 0.53 | 0.00 | 81 | 1012.1 |
| 20260507020503 | 58 | 23 | 3.0 | 8.0 | 0.00 | 0.53 | 0.00 | 81 | 1012.1 |
| 20260507020003 | 58 | 17 | 3.0 | 8.0 | 0.00 | 0.54 | 0.00 | 81 | 1012.1 |
| 20260507015503 | 58 | 17 | 3.0 | 7.0 | 0.00 | 0.54 | 0.00 | 81 | 1012.0 |
| 20260507015003 | 58 | 10 | 3.0 | 6.0 | 0.00 | 0.54 | 0.00 | 81 | 1012.0 |
| 20260507014503 | 58 | 360 | 3.0 | 7.0 | 0.00 | 0.57 | 0.00 | 81 | 1011.8 |
| 20260507014003 | 58 | 3 | 3.0 | 7.0 | 0.00 | 0.57 | 0.00 | 81 | 1011.8 |
| 20260507013503 | 58 | 28 | 3.0 | 5.0 | 0.00 | 0.61 | 0.00 | 81 | 1011.9 |
| 20260507013003 | 59 | 32 | 3.0 | 5.0 | 0.00 | 0.61 | 0.00 | 81 | 1012.1 |
| 20260507012503 | 59 | 16 | 3.0 | 5.0 | 0.00 | 0.62 | 0.00 | 81 | 1012.1 |
| 20260507012003 | 59 | 18 | 3.0 | 5.0 | 0.00 | 0.66 | 0.00 | 81 | 1012.1 |
| 20260507011503 | 59 | 27 | 3.0 | 5.0 | 0.00 | 0.69 | 0.00 | 81 | 1012.1 |
| 20260507011003 | 59 | 25 | 3.0 | 5.0 | 0.00 | 0.69 | 0.00 | 81 | 1012.2 |
| 20260507010503 | 59 | 24 | 3.0 | 5.0 | 0.00 | 0.69 | 0.00 | 81 | 1012.2 |
| 20260507010004 | 59 | 18 | 2.0 | 7.0 | 0.00 | 0.69 | 0.00 | 81 | 1012.1 |
| 20260507005503 | 59 | 9 | 2.0 | 7.0 | 0.00 | 0.69 | 0.00 | 80 | 1012.1 |
| 20260507005003 | 60 | 20 | 2.0 | 6.0 | 0.00 | 0.69 | 0.00 | 80 | 1012.2 |
| 20260507004503 | 60 | 26 | 1.0 | 5.0 | 0.00 | 0.69 | 0.00 | 83 | 1012.1 |
| 20260507004003 | 60 | 22 | 1.0 | 4.0 | 0.00 | 0.69 | 0.00 | 80 | 1012.1 |
| 20260507003503 | 60 | 14 | 1.0 | 3.0 | 0.00 | 0.69 | 0.00 | 81 | 1012.1 |
| 20260507003004 | 60 | 13 | 1.0 | 4.0 | 0.00 | 0.69 | 0.00 | 81 | 1012.1 |
| 20260507002503 | 60 | 12 | 1.0 | 4.0 | 0.00 | 0.69 | 0.00 | 81 | 1012.1 |
| 20260507002003 | 60 | 13 | 1.0 | 4.0 | 0.00 | 0.69 | 0.00 | 81 | 1012.0 |
| 20260507001503 | 60 | 13 | 1.0 | 4.0 | 0.00 | 0.69 | 0.00 | 81 | 1012.1 |
| 20260507001003 | 60 | 12 | 2.0 | 5.0 | 0.00 | 0.69 | 0.00 | 81 | 1012.0 |
| 20260507000503 | 60 | 26 | 2.0 | 6.0 | 0.00 | 0.69 | 0.00 | 81 | 1012.1 |
| 20260507000003 | 60 | 29 | 2.0 | 6.0 | 0.00 | 0.69 | 0.00 | 81 | 1012.1 |
| 20260506235503 | 60 | 26 | 2.0 | 4.0 | 0.00 | 0.69 | 0.00 | 81 | 1012.1 |
| 20260506235003 | 60 | 18 | 2.0 | 4.0 | 0.00 | 0.69 | 0.00 | 81 | 1012.2 |
| 20260506234503 | 60 | 10 | 2.0 | 7.0 | 0.00 | 0.69 | 0.00 | 81 | 1012.2 |
| 20260506234003 | 60 | 11 | 3.0 | 7.0 | 0.00 | 0.69 | 0.00 | 81 | 1012.3 |
| 20260506233503 | 60 | 18 | 3.0 | 6.0 | 0.00 | 0.69 | 0.00 | 81 | 1012.2 |
| 20260506233003 | 60 | 22 | 2.0 | 6.0 | 0.00 | 0.69 | 0.00 | 81 | 1012.2 |
| 20260506232503 | 60 | 16 | 1.0 | 5.0 | 0.00 | 0.69 | 0.00 | 81 | 1012.3 |
| 20260506232003 | 60 | 12 | 1.0 | 4.0 | 0.00 | 0.70 | 0.00 | 81 | 1012.3 |
| 20260506231504 | 60 | 13 | 1.0 | 2.0 | 0.00 | 0.70 | 0.00 | 81 | 1012.2 |
| 20260506231003 | 60 | 27 | 1.0 | 4.0 | 0.00 | 0.70 | 0.00 | 81 | 1012.2 |
| 20260506230503 | 60 | 25 | 1.0 | 4.0 | 0.00 | 0.71 | 0.00 | 81 | 1012.2 |
| 20260506230003 | 60 | 24 | 1.0 | 6.0 | 0.00 | 0.71 | 0.00 | 81 | 1012.2 |
| 20260506225503 | 60 | 26 | 0.0 | 6.0 | 0.00 | 0.71 | 0.00 | 81 | 1012.2 |
| 20260506225003 | 60 | 22 | 0.0 | 1.0 | 0.00 | 0.71 | 0.00 | 81 | 1012.2 |
| 20260506224503 | 60 | 22 | 1.0 | 2.0 | 0.00 | 0.71 | 0.00 | 81 | 1012.2 |
| 20260506224003 | 59 | 24 | 2.0 | 4.0 | 0.00 | 0.71 | 0.00 | 81 | 1012.1 |
| 20260506223503 | 59 | 20 | 2.0 | 5.0 | 0.00 | 0.71 | 0.00 | 81 | 1012.1 |
| 20260506223003 | 59 | 20 | 3.0 | 6.0 | 0.00 | 0.71 | 0.00 | 81 | 1012.1 |
| 20260506222503 | 59 | 27 | 3.0 | 6.0 | 0.00 | 0.71 | 0.00 | 81 | 1012.2 |
| 20260506222003 | 59 | 31 | 3.0 | 6.0 | 0.00 | 0.71 | 0.00 | 81 | 1012.2 |
| 20260506221504 | 59 | 33 | 3.0 | 5.0 | 0.00 | 0.71 | 0.00 | 81 | 1012.2 |
| 20260506221003 | 59 | 30 | 3.0 | 8.0 | 0.00 | 0.71 | 0.00 | 81 | 1012.2 |
| 20260506220503 | 59 | 25 | 3.0 | 8.0 | 0.00 | 0.71 | 0.00 | 81 | 1012.2 |
| 20260506220008 | 59 | 24 | 4.0 | 7.0 | 0.00 | 0.71 | 0.00 | 81 | 1012.2 |
| 20260506215503 | 59 | 30 | 4.0 | 7.0 | 0.00 | 0.71 | 0.71 | 81 | 1012.2 |
| 20260506215004 | 59 | 31 | 3.0 | 7.0 | 0.00 | 0.71 | 0.71 | 81 | 1012.2 |
| 20260506214503 | 59 | 22 | 3.0 | 6.0 | 0.00 | 0.71 | 0.71 | 81 | 1012.3 |
| 20260506214003 | 59 | 18 | 4.0 | 5.0 | 0.00 | 0.71 | 0.71 | 81 | 1012.3 |
| 20260506213503 | 59 | 28 | 4.0 | 7.0 | 0.00 | 0.71 | 0.71 | 81 | 1012.3 |
| 20260506213003 | 59 | 30 | 4.0 | 8.0 | 0.00 | 0.71 | 0.71 | 81 | 1012.3 |
| 20260506212503 | 59 | 27 | 4.0 | 8.0 | 0.00 | 0.71 | 0.71 | 81 | 1012.2 |
| 20260506212003 | 59 | 32 | 3.0 | 9.0 | 0.00 | 0.71 | 0.71 | 80 | 1012.3 |
| 20260506211503 | 59 | 30 | 2.0 | 9.0 | 0.00 | 0.71 | 0.71 | 80 | 1012.2 |
| 20260506211003 | 59 | 9 | 2.0 | 9.0 | 0.00 | 0.71 | 0.71 | 80 | 1012.2 |
| 20260506210503 | 59 | 345 | 3.0 | 4.0 | 0.00 | 0.71 | 0.71 | 81 | 1012.2 |
| 20260506210004 | 59 | 14 | 3.0 | 6.0 | 0.00 | 0.71 | 0.71 | 81 | 1012.2 |
| 20260506205503 | 59 | 28 | 3.0 | 6.0 | 0.00 | 0.71 | 0.71 | 80 | 1012.1 |
| 20260506205003 | 59 | 31 | 3.0 | 6.0 | 0.00 | 0.71 | 0.71 | 80 | 1012.1 |
| 20260506204503 | 59 | 34 | 3.0 | 5.0 | 0.00 | 0.71 | 0.71 | 80 | 1012.1 |
| 20260506204003 | 59 | 29 | 3.0 | 6.0 | 0.00 | 0.71 | 0.71 | 80 | 1012.1 |
| 20260506203503 | 59 | 23 | 3.0 | 6.0 | 0.00 | 0.71 | 0.71 | 80 | 1012.1 |
| 20260506203003 | 59 | 27 | 3.0 | 6.0 | 0.00 | 0.71 | 0.71 | 80 | 1012.0 |
| 20260506202503 | 59 | 28 | 3.0 | 6.0 | 0.00 | 0.71 | 0.71 | 80 | 1012.0 |
| 20260506202003 | 59 | 28 | 3.0 | 5.0 | 0.00 | 0.71 | 0.71 | 80 | 1011.9 |
| 20260506201503 | 59 | 28 | 4.0 | 5.0 | 0.00 | 0.71 | 0.71 | 80 | 1011.9 |
| 20260506201003 | 60 | 23 | 4.0 | 7.0 | 0.00 | 0.71 | 0.71 | 80 | 1011.8 |
| 20260506200503 | 60 | 31 | 3.0 | 8.0 | 0.00 | 0.71 | 0.71 | 80 | 1011.8 |
| 20260506200003 | 60 | 34 | 3.0 | 8.0 | 0.00 | 0.71 | 0.71 | 79 | 1011.8 |
| 20260506195503 | 60 | 22 | 3.0 | 5.0 | 0.00 | 0.71 | 0.71 | 79 | 1011.7 |
| 20260506195003 | 61 | 7 | 3.0 | 5.0 | 0.00 | 0.71 | 0.71 | 79 | 1011.6 |
| 20260506194503 | 61 | 15 | 3.0 | 5.0 | 0.00 | 0.71 | 0.71 | 79 | 1011.6 |
| 20260506194003 | 61 | 17 | 2.0 | 5.0 | 0.00 | 0.71 | 0.71 | 79 | 1011.5 |
| 20260506193503 | 61 | 2 | 2.0 | 4.0 | 0.00 | 0.71 | 0.71 | 78 | 1011.5 |
| 20260506193003 | 62 | 352 | 2.0 | 4.0 | 0.00 | 0.71 | 0.71 | 78 | 1011.4 |
| 20260506192503 | 62 | 344 | 2.0 | 4.0 | 0.00 | 0.71 | 0.71 | 78 | 1011.3 |
| 20260506192004 | 62 | 353 | 2.0 | 3.0 | 0.00 | 0.71 | 0.71 | 78 | 1011.3 |
| 20260506191504 | 62 | 3 | 2.0 | 4.0 | 0.00 | 0.71 | 0.71 | 78 | 1011.2 |
| 20260506191003 | 62 | 358 | 1.0 | 4.0 | 0.00 | 0.71 | 0.71 | 77 | 1011.1 |
| 20260506190503 | 62 | 316 | 1.0 | 4.0 | 0.00 | 0.71 | 0.71 | 77 | 1011.0 |
| 20260506190004 | 63 | 212 | 2.0 | 3.0 | 0.00 | 0.71 | 0.71 | 77 | 1010.9 |
| 20260506185503 | 63 | 198 | 3.0 | 8.0 | 0.00 | 0.71 | 0.71 | 77 | 1010.8 |
| 20260506185003 | 63 | 203 | 3.0 | 8.0 | 0.00 | 0.71 | 0.71 | 77 | 1010.8 |
| 20260506184503 | 64 | 213 | 3.0 | 6.0 | 0.00 | 0.71 | 0.71 | 77 | 1010.7 |
| 20260506184003 | 63 | 212 | 3.0 | 5.0 | 0.00 | 0.71 | 0.71 | 77 | 1010.7 |
| 20260506183503 | 63 | 206 | 3.0 | 6.0 | 0.00 | 0.71 | 0.71 | 77 | 1010.6 |
| 20260506183004 | 63 | 206 | 3.0 | 6.0 | 0.00 | 0.71 | 0.71 | 77 | 1010.6 |
| 20260506182503 | 63 | 205 | 3.0 | 6.0 | 0.00 | 0.71 | 0.71 | 77 | 1010.5 |
| 20260506182003 | 63 | 211 | 4.0 | 5.0 | 0.00 | 0.71 | 0.71 | 77 | 1010.5 |
| 20260506181503 | 64 | 215 | 4.0 | 6.0 | 0.00 | 0.71 | 0.71 | 77 | 1010.5 |
| 20260506181003 | 64 | 212 | 5.0 | 7.0 | 0.00 | 0.71 | 0.71 | 77 | 1010.4 |
| 20260506180503 | 64 | 213 | 5.0 | 7.0 | 0.00 | 0.71 | 0.71 | 77 | 1010.4 |
| 20260506180004 | 64 | 215 | 5.0 | 7.0 | 0.00 | 0.71 | 0.71 | 77 | 1010.4 |
| 20260506175503 | 64 | 213 | 6.0 | 7.0 | 0.00 | 0.71 | 0.71 | 77 | 1010.3 |
| 20260506175003 | 64 | 212 | 6.0 | 11.0 | 0.00 | 0.71 | 0.71 | 77 | 1010.3 |
| 20260506174503 | 64 | 212 | 7.0 | 11.0 | 0.00 | 0.71 | 0.71 | 77 | 1010.3 |
| 20260506174003 | 64 | 210 | 7.0 | 10.0 | 0.00 | 0.71 | 0.71 | 76 | 1010.2 |
| 20260506173503 | 64 | 213 | 6.0 | 10.0 | 0.00 | 0.71 | 0.71 | 77 | 1010.2 |
| 20260506173003 | 64 | 214 | 5.0 | 9.0 | 0.00 | 0.71 | 0.71 | 77 | 1010.2 |
| 20260506172503 | 64 | 213 | 5.0 | 9.0 | 0.00 | 0.71 | 0.71 | 78 | 1010.1 |
| 20260506172003 | 64 | 212 | 5.0 | 8.0 | 0.00 | 0.71 | 0.71 | 78 | 1010.1 |
| 20260506171503 | 64 | 213 | 5.0 | 7.0 | 0.00 | 0.71 | 0.71 | 77 | 1010.0 |
| 20260506171003 | 64 | 213 | 5.0 | 7.0 | 0.00 | 0.71 | 0.71 | 77 | 1010.0 |
| 20260506170503 | 64 | 213 | 5.0 | 7.0 | 0.00 | 0.71 | 0.71 | 77 | 1010.0 |